Location: Malanoce
(44.2500°N, 7.4667°E)
Time: 22:35:48
(UTC+00:00)

AQUARIUS - Pass Details

Date: 17 November 2025
Orbit: 634 x 636 km, 98.0° (Epoch: 09 December)

Event Time Altitude Azimuth Distance (km) Brightness Sun altitude
Rises 17:18:40 0° 168° (SSE) 2,920 7.5 -13.8°
Reaches altitude 10° 17:20:52 10° 169° (S) 2,016 6.7 -14.2°
Maximum altitude 17:25:16 81° 257° (WSW) 649 4.2 -15.0°
Drops below altitude 10° 17:29:42 10° 345° (NNW) 2,030 6.7 -15.8°
Sets 17:31:54 0° 347° (NNW) 2,943 7.6 -16.2°
